Powrót do katalogu

THORAD DELTA 1 DEB

AktywnySSO
NORAD 8308·DEBRIS·🇺🇸 United States

Wystrzelony Nov 15, 1974 z Vandenberg Space Force Base

Loading…

Następne Przeloty (najbliższe 24 godziny)

TLE

ŚwieżeSource: Space-Track

Epoka: Sep 14, 2026, 00:57 UTC

1 08308U 74089BR  26257.03969016 -.00000014  00000-0  19657-3 0  9990
2 08308 101.4870 291.1496 0061748 239.8002 147.1230 12.45592119356117

Śledź THORAD DELTA 1 DEB w czasie rzeczywistym z AllMySat

Download on the App Store